Portada
METAR-TAF:

METAR-TAF

Aeroports :

Fond Du Lac County Airport

Fond du Lac, Wisconsin, Estats Units d'Amèrica

latitud: 43-46-12N, longitud: 088-29-11W, altitud: 246 m

Observació

L'informe es va fer fa 53 minuts, a les 08:53 UTC
Vent 6 kt del Sud/Sud-Oest
Temperatura 18°C
Humitat 94%
Pressió 1011 hPa
Visibilitat: 11.3 km
Núvols disperses a una alçada de 6000 ft

METAR: KFLD 250853Z AUTO 21006KT 7SM SCT060 18/17 A2986 RMK AO2 SLP108 T01780167 58010

Hora: 04:46 (09:46 UTC)


TAF: manca

Observacions i pronòstics meteorològics de més de 4000 aeroports (METAR i TAF).

Les estacions disponibles són els punts grocs i vermells al mapa.

Posi el ratolí al punt desitjat per veure el nom de l'estació.

Feu clic per veure les observacions i els pronòstics meteorològics.

Per canviar el mapa: feu clic els botons verds amb una creu de color negre per apropar; al botó verd amb un guió per allunyar la imatge; o en les fletxes verdes per a mapes adjacents.


METAR-TAF: